Simultaneous Nadir Overpasses (SNOs) Predictions

Prediction of SNOs between AQUA and GOES-15 Satellite Orbit:

Table of predicted SNOs for the next 14.0 days since TLE Epoch: 7/2/2022
Index Date Time (AQUA) AQUA Lat,Lon GOES-15 Lat,Lon Distance(km) Time Diff (sec)
1 07/02/2022 09:58:07 -0.92,-124.93 -0.14,-128.48 404.97 80
2 07/02/2022 22:19:24 -0.18,-130.09 0.16,-128.48 183.42 80
3 07/04/2022 22:06:49 0.47,-127.03 0.16,-128.47 164.21 80
4 07/05/2022 10:27:59 0.58,-132.16 -0.18,-128.48 418.87 80
5 07/07/2022 10:15:23 -0.03,-129.09 -0.18,-128.46 71.77 80
6 07/09/2022 10:02:48 -0.71,-126.03 -0.18,-128.45 274.51 80
7 07/09/2022 22:24:06 -0.39,-131.20 0.21,-128.43 315.08 80
8 07/11/2022 22:11:31 0.29,-128.14 0.21,-128.40 30.14 80
9 07/13/2022 21:58:55 0.93,-125.07 0.21,-128.37 374.64 80
10 07/14/2022 10:20:04 0.18,-130.20 -0.24,-128.37 208.66 80
